Overview Statistics Trail Chart Weather Telemetry Raw packets
 

This is the latest recevied weather packets stored in our database for station/object KLEMETTI. If no packets are shown the sender has not sent any weather packets the latest 10 day(s).

<< 7 8 9 10 11 12 13 >>
Time Temp. Humidity Pressure Rain* Wind** Luminosity Snow
1788339879 17.22° C 62% 1005.9 hPa 0 mm - - -
1788338677 17.22° C 63% 1005.9 hPa 0 mm - - -
1788337479 17.78° C 63% 1005.9 hPa 0 mm - - -
1788336068 17.22° C 70% 1005.7 hPa 0 mm - - -
1788333877 16.67° C 76% 1005.7 hPa 0 mm - - -
1788332677 15.56° C 79% 1005.6 hPa 0 mm - - -
1788331477 16.11° C 82% 1005.6 hPa 0 mm - - -
1788330278 15° C 90% 1005.5 hPa 0 mm - - -
1788328869 13.33° C 97% 1005.5 hPa 0 mm - - -
1788327878 12.78° C 99% 1005.4 hPa 0 mm - - -
1788326679 11.67° C 100% 1005.4 hPa 0 mm - - -
1788325479 10.56° C 100% 1005.5 hPa 0 mm - - -
1788323078 9.44° C 100% 1005.4 hPa 0 mm - - -
1788321879 8.89° C 100% 1005.5 hPa 0 mm - - -
1788320679 8.89° C 100% 1005.5 hPa 0 mm - - -
1788319480 8.89° C 100% 1005.6 hPa 0 mm - - -
1788318279 8.89° C 100% 1005.7 hPa 0 mm - - -
1788317081 8.89° C 100% 1005.7 hPa 0 mm - - -
1788315879 9.44° C 100% 1005.8 hPa 0 mm - - -
1788314678 9.44° C 100% 1005.8 hPa 0 mm - - -
1788313480 9.44° C 99% 1005.7 hPa 0 mm - - -
1788312294 10.56° C 99% 1005.7 hPa 0 mm - - -
1788311078 10.56° C 100% 1005.8 hPa 0 mm - - -
1788309880 11.11° C 100% 1005.7 hPa 0 mm - - -
1788308680 10.56° C 99% 1005.8 hPa 0 mm - - -

* Rain latest hour (hover to see other rain measurements)
** Current wind speed in m/s (hover to see current wind gust speed)